Location: Kellogg
(38.0159°N, 90.0546°W)
Time: 03:04:50
(UTC+00:00)

SR - Pass Details

Date: 15 September 2024
Orbit: 577 x 855 km, 66.7° (Epoch: 10 October)

Event Time Altitude Azimuth Distance (km) Brightness Sun altitude
Rises 19:59:09 0° 246° (WSW) 2,808 ? 44.6°
Reaches altitude 10° 20:02:01 10° 266° (W) 1,894 ? 44.2°
Maximum altitude 20:04:54 18° 310° (NW) 1,458 ? 43.8°
Drops below altitude 10° 20:07:48 10° 353° (N) 1,899 ? 43.4°
Sets 20:10:41 0° 13° (NNE) 2,818 ? 42.9°
